Погода в Сутуре

Погода в Сутуре : погода сейчас, прогноз погоды и архив. Всё, что Вы хотите узнать о погоде в Сутуре!

Поиск расширенной информации на нашем сайте:

Полезная информация: бухгалтерское обслуживание в строительстве

Другие новости

Новости СМИ2

Главная страница сайта

Новости сайта

03.07.2017

Напоминаем, что на нашем специализированном сайте Метеоцентр.Азия вы можете получить высокодетализированные автоматические прогнозы погоды по пунктам России, СНГ и мира в авиационном формате (включающие направление и скорость ветра, видимость, явления погоды, количество и форму облачности, нижнюю и верхнюю границу облачности).

Рекомендуем: технические характеристики ВВГнг 4х150

Погода в Сутуре - сегодня

Время (UTC), дата Ветер
(°,м/с) 
Видим.   Явления Облачность Т
(°С)
Тd
(°С)
f(%) Тe
(°С)
Pmin
(гПа)
dP
(гПа)
Po
(мм)
O2
(г/м3)
Тmin Tmax R s Состояние
почвы
06 18.07.17 200 (Ю) 20000 м    10/3 600 м кучево-дожд., средняя, верхняя 
[Cb cap|Ac lent|Ci ing]
+25.3 +18.9 68 +43  998.5  -2  720  261           
09 18.07.17 170 (Ю) 20000 м    10/4 600 м кучево-дожд., средняя 
[Cb cap|Ac As]
+20.6 +18.2 86 +37  996.7  -2.3  719  265    +27.1       
12 18.07.17 130 (ЮВ) 10 км  в посл. час гроза{ливн. осадки}  10/10 600 м кучево-дожд. 
[Cb cap]
+18.6 +18.2 98 +35  994.9  -2  717  266           
15 18.07.17 210 (ЮЗ) 20000 м  {ливн. осадки}  6/1 600 м кучево-дожд., средняя, верхняя 
[Cb cap|Ac lent|Ci ing]
+19.2 +18.1 93 +36  994.5  -0.3  717  266           
18 18.07.17 200 (Ю) 20000 м  {ливн. осадки}  3/0 средняя 
[Ac lent]
+17.7 +16.9 95 +33  995  0.3  717  267           
21 18.07.17 240 (ЮЗ) 20000 м    8/0 средняя 
[Ac cuf]
+18.2 +16.3 89 +31  995.6  0.6  718  267  +17    22    мокрая 
00 19.07.17 260 (З) 20000 м    8/6 600 м кучево-дожд., средняя 
[Cb cap|Ac As]
+18.5 +13.4 72 +26  996.7  1.1  718  268           
03 19.07.17 260 (З) 4{11}  20000 м    8/4 1000 м средняя 
[Cu hum|Ac As]
+21.4 +12.3 56 +27  996  -0.3  718  266           
06 19.07.17 280 (З) 3{11}  20000 м    8/4 1000 м средняя 
[Cu hum|Ac As]
+22 +12.4 54 +27  996.3  0.3  718  265           
09 19.07.17 270 (З) 20000 м    8/6 1000 м средняя 
[Sc|Ac As]
+20.5 +11.9 58 +25  997.6  719  267    +23.3       
12 19.07.17 260 (З) 20000 м    4/0 средняя 
[Ac As]
+17.4 +11.8 70 +23  999.5  1.5  720  271           
15 19.07.17 210 (ЮЗ) 20000 м    4/0 средняя 
[Ac As]
+13.4 +10.5 83 +16  1000.4  0.3  720  275           
18 19.07.17 120 (ЮВ) 20000 м    3/0 средняя 
[Ac As]
+12.1 +9.5 84 +14  1001.2  0.6  721  276           
21 19.07.17 300 (СЗ) 20000 м    3/0 верхняя 
[Ci fib]
+10.9 +9 88 +13  1002.8  1.3  722  278  +10.9        влажная 
00 20.07.17 230 (ЮЗ) 20000 м    ясно 
+19.6 +10.9 57 +24  1001.6  0.1  722  269           
03 20.07.17 270 (З) 20000 м    3/3 1000 м 
[Cu hum]
+23.3 +6.9 35 +23  1001.1  722  267           
06 20.07.17 280 (З) 20000 м    6/3 1000 м верхняя 
[Cu hum|Ci fib]
+25 +5.6 29 +25  1000.4  -0.5  722  265           
09 20.07.17 280 (З) 20000 м    9/3 1000 м средняя, верхняя 
[Sc|Ac lent|Ci fib]
+22.5 +11.6 50 +27  1001.5  0.8  722  267    +25.4       
12 20.07.17 250 (З) 20000 м    8/4 1000 м средняя 
[Sc|Ac lent]
+17.6 +10.9 65 +22  1003.1  0.9  723  272           
15 20.07.17 290 (З) 20000 м    3/0 средняя 
[Ac lent]
+12.6 +11.4 92 +18  1004.3  0.5  723  276           
18 20.07.17 тихо ()   20000 м    3/0 средняя 
[Ac lent]
+9.8 +9.4 97 +11  1005.1  0.3  723  280           
21 20.07.17 330 (СЗ) 20000 м    3/0 средняя 
[Ac trans]
+8.8 +8.3 97 +10  1005.6  0.4  724  281  +7.2        сухая 
00 21.07.17 170 (Ю) 20000 м    6/1 1000 м средняя, верхняя 
[Cu hum|Ac lent|Ci fib]
+15.1 +11.5 79 +20  1004.8  0.1  724  274           
03 21.07.17 330 (СЗ) 20000 м    8/6 600 м кучево-дожд., верхняя 
[Cb cap|Ci fib]
+21.3 +10.1 49 +23  1003.9  0.1  724  269           
06 21.07.17 330 (СЗ) 20000 м    8/3 1000 м средняя, верхняя 
[Cu hum|Ac lent|Ci fib]
+22 +11.2 50 +26  1004.2  0.4  724  268           
Время (UTC), дата Ветер
(°,м/с) 
Видим.   Явления Облачность Т
(°С)
Тd
(°С)
f(%) Тe
(°С)
Pmin
(гПа)
dP
(гПа)
Po
(мм)
O2
(г/м3)
Тmin Tmax R s Состояние
почвы

Для получения пояснительной информации подведите курсор к названию столбца.

ПОГОДА в Сутуре - архив

Всё, что Вы хотите узнать о погоде в Сутуре - удобно и подробно!

Выберите нужную дату (начиная с 1 января 2015* года) и нажмите кнопку "Найти".
Будут отображены архивные сводки погоды по пункту Сутур, начиная с указанной даты.


Отображать данные в формате CSV (для использования в таблицах Excel)


Внимание! Наш архив погоды предназначен исключительно для личного некоммерческого использования в познавательных целях. Если Вам необходимы официальные справки о состоянии погоды (для производственных, юридических, коммерческих и т.п. целей), обращайтесь в органы Росгидромета.

*Примечание: данная дата относится к архиву по метеостанциям СССР (Россия, СНГ, Балтия).
Архив по метеостанциям Зарубежной Европы и Азии (кроме Китая) хранится 10 дней, по другим регионам земного шара (Китай, Африка, Америка, Австралия, Океания) - 1 день.

Сутур - район местоположения метеостанции


Название, широта, долгота, высота метеостанции:
Сутур 50.1°ш. 132.1°д. 347 м над ур. моря [Российская Федерация]

Дополнительная информация

В oтличие oт бoльшинства пoгoдных сайтoв мы публикуем пoдрoбную метеoинфoрмацию в детальнoм прoфессиoнальнoм фoрмате.

Характеристики температуры и влажнoсти вoздуха измеряются на высoте 2 м в тени вдали oт зданий и деревьев.
Скoрoсть ветра измеряется на высoте 10 м (на урoвне рoста челoвека скoрoсть ветра ниже в 1.5-2 раза). Если метеoстанция нахoдится в гoрoде или в лесу, тo скoрoсть ветра занижена на 2-4 м/с пo сравнению с oткрытым местoм. Скoрoсть ветра над акватoриями крупных рек и oзёр, а также на вершинах хoлмoв на 2-5 м/с выше, чем в oбычных услoвиях.
Атмoсфернoе давление в разных тoчках местнoсти мoжет значительнo oтличаться oт давления на метеoстанции, в зависимoсти oт услoвий рельефа (при пoдъёме на 10 м давление пoнижается примернo на 1 мм рт.ст.).